Regional Weather Roundup
Issued by NWS Burlington, VT

Home | Current Version | Previous Version | Text Only | Print | Product List | Glossary On
Versions: 1 2 3 4 5 6 7 8 9 10 11 12 13 14 15 16 17 18 19 20 21 22 23 24 25 26 27 28 29 30 31 32 33 34 35 36 37 38 39 40 41 42 43 44 45 46 47 48 49 50
000
ASUS41 KBTV 220030
RWRBTV
VERMONT REGIONAL WEATHER ROUNDUP
NATIONAL WEATHER SERVICE BURLINGTON VT
800 PM EDT SUN SEP 21 2014

NOTE: "FAIR" INDICATES FEW OR NO CLOUDS BELOW 12,000 FEET WITH NO
SIGNIFICANT WEATHER AND/OR OBSTRUCTIONS TO VISIBILITY.

* THESE REPORTS ARE NOT UNDER NWS QUALITY CONTROL AND/OR DO NOT
  REPORT WEATHER SUCH AS PRECIPITATION AND FOG.

VTZ001>019-220100-
_____VERMONT_____


CITY           SKY/WX    TMP DP  RH WIND       PRES   REMARKS
BURLINGTON     CLOUDY    74  57  55 S3        29.55F
6HR MIN TEMP:  73; 6HR MAX TEMP:  82;

MONTPELIER     CLOUDY    69  63  81 S7        29.64F
6HR MIN TEMP:  69; 6HR MAX TEMP:  77;

MORRISVILLE    CLOUDY    73  62  68 S6        29.59F
6HR MIN TEMP:  72; 6HR MAX TEMP:  80;

ST. JOHNSBURY*   N/A     68  64  87 MISG      29.60S
6HR MIN TEMP:  68; 6HR MAX TEMP:  77;

MIDDLEBURY*    CLOUDY    75  63  65 S9        29.56S
6HR MIN TEMP:  71; 6HR MAX TEMP:  82;

RUTLAND*       CLOUDY    72  63  73 SE9       29.60S
6HR MIN TEMP:  70; 6HR MAX TEMP:  81;

SPRINGFIELD    CLOUDY    68  66  93 CALM      29.63S
6HR MIN TEMP:  68; 6HR MAX TEMP:  78;

HIGHGATE*      RAIN      72  59  64 SW7G21    29.55R
6HR MIN TEMP:  73; 6HR MAX TEMP:  77;

NEWPORT*       FAIR     N/A N/A N/A S7G16     29.60S
BENNINGTON     MOCLDY    70  63  78 SE5       29.61S
6HR MIN TEMP:  68; 6HR MAX TEMP:  79;

SUTTON*          N/A     68 N/A N/A MISG        N/A
GALLUP MILLS*    N/A     61 N/A N/A MISG        N/A
UNION VILLAGE*   N/A     66 N/A N/A MISG        N/A
MT. MANSFIELD*   N/A     59 N/A N/A SE8         N/A

_____LAKE CHAMPLAIN_____


CITY           SKY/WX    TMP DP  RH WIND       PRES   REMARKS
BURTON ISLAND*   N/A     68  61  77 SW9         N/A
COLCHESTER RF*   N/A     73  57  56 W9          N/A
DIAMOND ISL*     N/A     72  61  68 S10         N/A

$$

NYZ007-026>031-035-052-083-220100-
_____NORTHERN NEW YORK_____


CITY           SKY/WX    TMP DP  RH WIND       PRES   REMARKS
PLATTSBURGH    HVY RAIN  68  63  84 VRB5      29.55R
6HR MIN TEMP:  68; 6HR MAX TEMP:  78; 6HR PCP:  0.04;

SARANAC LAKE   CLOUDY    61  60  97 SW3       29.61R
6HR MIN TEMP:  61; 6HR MAX TEMP:  71; 6HR PCP:  0.12;

MASSENA        MOCLDY    66  62  87 S10       29.54R
6HR MIN TEMP:  66; 6HR MAX TEMP:  77; 6HR PCP: TRACE;

OGDENSBURG*    CLEAR     66  63  88 SW6       29.54R
POTSDAM*       CLEAR     64  64 100 SW7       29.55S
PARISHVILLE*     N/A     63 N/A N/A S10         N/A
WATERTOWN      MOCLDY    68  57  68 SW8       29.57R
6HR MIN TEMP:  68; 6HR MAX TEMP:  79; 6HR PCP: TRACE;

FT DRUM        MOCLDY    65  60  83 SW8       29.58R
6HR MIN TEMP:  65; 6HR MAX TEMP:  76; 6HR PCP:  0.14;

ALBANY         MOCLDY    75  65  70 S10       29.58F
6HR MIN TEMP:  75; 6HR MAX TEMP:  82;

GLENS FALLS    MOCLDY    73  63  70 S7        29.57F
6HR MIN TEMP:  73; 6HR MAX TEMP:  81;


$$
NHZ002-005-011-220100-
_____NEW HAMPSHIRE_____


CITY           SKY/WX    TMP DP  RH WIND       PRES   REMARKS
LEBANON        CLOUDY    68  64  87 CALM      29.62S
6HR MIN TEMP:  67; 6HR MAX TEMP:  80;

KEENE          CLOUDY    66  59  77 CALM      29.63S
6HR MIN TEMP:  66; 6HR MAX TEMP:  75;

MT WASHINGTON  LGT RAIN  52  52 100 S35G41      N/A  VSB 0
6HR MIN TEMP:  49; 6HR MAX TEMP:  53; 6HR PCP:  0.03;

PLYMOUTH       CLOUDY    69  69 100 CALM      29.63S
6HR MIN TEMP:  68; 6HR MAX TEMP:  75;

WHITEFIELD     CLOUDY    66  61  84 NW5       29.63F
6HR MIN TEMP:  64; 6HR MAX TEMP:  78;


$$

_____REGIONAL QUEBEC LOCATIONS_____


CITY           SKY/WX    TMP DP  RH WIND       PRES   REMARKS
MONTREAL       MOCLDY    70  59  68 S15G22    29.51S
QUEBEC CITY    LGT RAIN  64  63  94 NE6       29.56F
SHERBROOKE     CLOUDY    72  61  68 SE8       29.58F

_____REGIONAL ONTARIO LOCATIONS_____


CITY           SKY/WX    TMP DP  RH WIND       PRES   REMARKS
OTTAWA         CLOUDY    57  55  94 W13G23    29.57R

______KEY______
VSB  - VISIBILITY IN MILES
WCI  - WIND CHILL INDEX
HX   - HEAT INDEX
$$



USA.gov is the U.S. government's official web portal to all federal, state and local government web resources and services.